YZ-1 R/B (43210 NORAD) Tracking and Keplerian Element Data

This shows tracking and keplerian element data for the satellite.

Feedback or suggestion? Click here.




ElementValue
Catalog43210
NameYZ-1 R/B
Epoch Orbit51
Epoch Day71.84788406
Epoch Year2018
RAAN164.1054
Inclination54.7934
Eccentricity0.0027136
Argument of Perigee69.6314
Mean Anonmoly290.6764
Mean Motion1.79055354
Decay Rate-2E-07
L11 43210U 18018D 18071.84788406 -.00000020 00000-0 10000-3 0 9997
L22 43210 54.7934 164.1054 0027136 69.6314 290.6764 1.79055354 512



Live tracking and technical data element details for YZ-1 R/B (NORAD 43210). YZ-1 R/B can be tracked NOW for your location showing map with azimuth and elevation plus other details from your city location.







IsCatalogInMostPopularTable: catalog: 43210, numindb: 595
Update: records affected: 1



GetName: 43210 YZ-1 R/B

Hit Count: updated at: Mon, 17 Jun 2024 22:15:56 GMT